TimeEST,TemperatureF,Dew PointF,Humidity,Sea Level PressureIn,VisibilityMPH,Wind Direction,Wind SpeedMPH,Gust SpeedMPH,PrecipitationIn,Events,Conditions,WindDirDegrees,DateUTC
12:53 AM,48.9,46.0,90,29.69,5.0,NNE,4.6,-,0.04,Rain,Light Rain,20,2008-11-15 05:53:00
1:03 AM,48.2,46.4,93,29.69,5.0,North,3.5,-,0.01,Rain,Light Rain,10,2008-11-15 06:03:00
1:30 AM,48.2,46.4,93,29.68,5.0,NNE,5.8,-,0.04,Rain,Light Rain,20,2008-11-15 06:30:00
1:51 AM,48.2,46.4,93,29.68,4.0,NNE,4.6,-,0.07,Rain,Light Rain,20,2008-11-15 06:51:00
1:53 AM,48.9,46.0,90,29.69,4.0,NNE,4.6,-,0.08,Rain,Light Rain,30,2008-11-15 06:53:00
2:16 AM,48.2,46.4,93,29.68,4.0,North,4.6,-,0.03,Rain,Light Rain,10,2008-11-15 07:16:00
2:30 AM,48.2,46.4,93,29.68,4.0,NNE,5.8,-,0.05,Rain,Light Rain,20,2008-11-15 07:30:00
2:53 AM,48.9,46.0,90,29.68,5.0,NE,8.1,-,0.07,Rain,Light Rain,40,2008-11-15 07:53:00
3:09 AM,48.2,46.4,93,29.67,6.0,NNE,6.9,-,0.02,Rain,Light Rain,30,2008-11-15 08:09:00
3:13 AM,48.2,46.4,93,29.67,6.0,NNE,9.2,-,0.03,Rain,Light Rain,20,2008-11-15 08:13:00
3:21 AM,46.4,42.8,87,29.67,6.0,NE,13.8,27.6,0.05,Rain,Rain,40,2008-11-15 08:21:00
3:53 AM,45.0,42.1,90,29.67,10.0,NNE,13.8,20.7,0.07,Rain,Light Rain,20,2008-11-15 08:53:00
4:53 AM,44.1,39.9,85,29.65,9.0,NNE,9.2,21.9,0.03,Rain,Light Rain,20,2008-11-15 09:53:00
5:53 AM,43.0,39.9,89,29.61,7.0,North,15.0,23.0,0.05,Rain,Light Rain,10,2008-11-15 10:53:00
6:53 AM,43.0,39.0,86,29.60,8.0,North,12.7,21.9,0.03,Rain,Light Rain,10,2008-11-15 11:53:00
7:18 AM,42.8,39.2,87,29.59,7.0,North,13.8,25.3,0.02,Rain,Light Rain,360,2008-11-15 12:18:00
7:53 AM,43.0,39.9,89,29.58,8.0,North,16.1,20.7,0.06,Rain,Light Rain,10,2008-11-15 12:53:00
8:53 AM,43.0,39.9,89,29.59,6.0,North,19.6,28.8,0.06,Rain,Light Rain,360,2008-11-15 13:53:00
9:03 AM,42.8,39.2,87,29.58,4.0,North,20.7,27.6,0.02,Rain,Rain,360,2008-11-15 14:03:00
9:44 AM,42.8,39.2,87,29.58,6.0,North,18.4,25.3,0.08,Rain,Light Rain,360,2008-11-15 14:44:00
9:53 AM,42.1,39.0,89,29.58,7.0,North,23.0,32.2,0.09,Rain,Light Rain,360,2008-11-15 14:53:00
10:51 AM,41.0,37.4,87,29.57,5.0,North,15.0,26.5,0.07,Rain,Light Rain,360,2008-11-15 15:51:00
10:53 AM,41.0,39.0,93,29.58,5.0,North,18.4,26.5,0.07,Rain,Light Rain,360,2008-11-15 15:53:00
11:17 AM,39.2,37.4,93,29.56,4.0,North,18.4,26.5,0.04,Rain,Rain,360,2008-11-15 16:17:00
11:53 AM,39.9,37.0,89,29.56,5.0,North,16.1,35.7,0.08,Rain,Light Rain,10,2008-11-15 16:53:00
12:19 PM,39.2,37.4,93,29.54,5.0,North,17.3,26.5,0.03,Rain,Light Rain,10,2008-11-15 17:19:00
12:53 PM,39.0,37.0,93,29.54,3.0,North,16.1,26.5,0.08,Rain,Rain,10,2008-11-15 17:53:00
1:05 PM,37.4,35.6,93,29.53,2.5,North,18.4,33.4,0.04,Rain,Rain,10,2008-11-15 18:05:00
1:53 PM,37.9,36.0,93,29.54,2.5,North,16.1,25.3,0.12,Rain,Light Rain,350,2008-11-15 18:53:00
2:00 PM,37.4,35.6,93,29.54,4.0,NNW,12.7,24.2,0.01,Rain,Light Rain,340,2008-11-15 19:00:00
2:11 PM,37.4,35.6,93,29.53,4.0,NNW,11.5,20.7,0.02,Rain,Light Rain,340,2008-11-15 19:11:00
2:45 PM,37.4,35.6,93,29.55,3.0,NNW,10.4,18.4,0.07,Rain,Light Rain,340,2008-11-15 19:45:00
2:53 PM,37.0,35.1,93,29.56,4.0,NNW,10.4,17.3,0.07,Rain,Light Rain,340,2008-11-15 19:53:00
3:53 PM,37.9,35.1,89,29.57,10.0,NW,17.3,24.2,0.05,Rain,Light Rain,320,2008-11-15 20:53:00
4:53 PM,36.0,34.0,93,29.61,9.0,NW,11.5,25.3,0.03,Rain,Light Rain,320,2008-11-15 21:53:00
5:53 PM,37.0,35.1,93,29.65,10.0,WNW,12.7,26.5,0.02,Rain,Light Rain,300,2008-11-15 22:53:00
6:53 PM,37.9,35.1,89,29.68,10.0,WNW,10.4,21.9,0.00,,Overcast,300,2008-11-15 23:53:00
7:53 PM,39.0,30.0,70,29.70,10.0,NW,10.4,20.7,N/A,,Overcast,310,2008-11-16 00:53:00
8:53 PM,37.9,28.9,70,29.72,10.0,NW,9.2,21.9,N/A,,Scattered Clouds,310,2008-11-16 01:53:00
9:53 PM,37.9,30.0,73,29.73,10.0,WNW,10.4,-,N/A,,Overcast,300,2008-11-16 02:53:00
10:04 PM,37.4,30.2,75,29.72,10.0,WNW,9.2,-,N/A,,Overcast,300,2008-11-16 03:04:00
10:19 PM,37.4,28.4,70,29.73,10.0,NW,16.1,23.0,N/A,,Overcast,320,2008-11-16 03:19:00
10:53 PM,37.9,28.0,68,29.75,10.0,NW,13.8,-,N/A,,Overcast,310,2008-11-16 03:53:00
11:53 PM,37.9,26.1,62,29.76,10.0,NW,15.0,24.2,N/A,,Overcast,310,2008-11-16 04:53:00